Regional Weather Roundup
Issued by NWS

Home | Current Version | Previous Version | Graphics & Text | Print | Product List | Glossary Off
Versions: 1 2 3 4 5 6 7 8 9 10 11 12 13 14 15 16 17 18 19 20 21 22 23 24 25 26 27 28 29 30 31 32 33 34 35 36 37 38 39 40 41 42 43 44 45 46 47 48 49 50

756
ASUS43 KLSX 210307
RWRMO

WEATHER SUMMARY FOR MISSOURI
NATIONAL WEATHER SERVICE SPRINGFIELD MO
1000 PM CDT FRI OCT 20 2017

NOTE: "FAIR" INDICATES FEW OR NO CLOUDS BELOW 12,000 FEET WITH NO
       SIGNIFICANT WEATHER AND/OR OBSTRUCTIONS TO VISIBILITY.
       CURRENT SKY AND/OR WEATHER CONDITIONS ARE NOT AVAILABLE FOR
       CHILLICOTHE AND FARMINGTON.

MOZ001>031-035>038-043-044-053-054-210400-
...NORTHERN AND WESTERN MISSOURI...

CITY           SKY/WX    TMP DP  RH WIND       PRES   REMARKS
KANSAS CTY INT PTCLDY    67  56  67 S17G29    29.85S
KANSAS C DTWN  CLEAR     70  57  63 S13G28    29.86S
LEE`S SUMMIT   PTCLDY    65  56  72 S17       29.88S
ST JOSEPH      LGT RAIN  67  58  72 S15G22    29.83S
CHILLICOTHE      N/A     65  54  67 SE8       29.91R
KIRKSVILLE     MOCLDY    63  53  70 S13       29.94S

$$
MOZ066>068-077>081-088>096-101>105-210400-
...SOUTHWEST MISSOURI...

CITY           SKY/WX    TMP DP  RH WIND       PRES   REMARKS
SPRINGFIELD    CLEAR     65  59  81 S18G30    29.97F
JOPLIN         LGT RAIN  66  59  78 S15G23    29.93S
BRANSON        CLOUDY    63  59  88 SE12      30.03R

$$
MOZ032>034-039>042-045>050-055>058-069>072-210400-
...CENTRAL MISSOURI...

CITY           SKY/WX    TMP DP  RH WIND       PRES   REMARKS
COLUMBIA       MOCLDY    66  54  65 SE10      29.98S
JEFFERSON CITY CLOUDY    65  53  65 SE9       29.98S
ROLLA          MOCLDY    65  54  67 S14       30.02S
SEDALIA        CLEAR     66  59  78 S18       29.95S
WHITEMAN AFB   PTCLDY    64  56  75 S15G23    29.88R
WARRENSBURG    CLEAR     63  54  72 SE13G18   29.91R
OSAGE BEACH    PTCLDY    66  58  75 S14       29.99S

$$
MOZ051-052-059>065-210400-
...EAST CENTRAL MISSOURI...

CITY           SKY/WX    TMP DP  RH WIND       PRES   REMARKS
ST LOUIS INTL  CLOUDY    69  51  52 SE13      30.05R
SPIRIT OF STL  MOCLDY    69  52  54 SE5       30.04S
ST CHARLES     CLOUDY    67  51  56 SE12      30.05R

$$
MOZ072>076-082>087-097>100-106>115-210400-
...SOUTH CENTRAL AND SOUTHEAST MISSOURI...

CITY           SKY/WX    TMP DP  RH WIND       PRES   REMARKS
CAPE GIRARDEAU CLOUDY    62  50  64 S7        30.11S
FARMINGTON     CLOUDY    66  51  58 S15G22    30.08S
POPLAR BLUFF   MOCLDY    59  52  77 CALM      30.11R
WEST PLAINS    CLOUDY    65  56  72 S6        30.07F

$$



USA.gov is the U.S. government's official web portal to all federal, state and local government web resources and services.